Location: Colonia Mina de C?rbuni
(46.1667°N, 22.7167°E)
Time: 06:01:08
(UTC+00:00)

Vanguard 1 Rocket - Pass Details

Date: 15 April 2024
Orbit: 650 x 4220 km, 34.3° (Epoch: 26 May)

Event Time Altitude Azimuth Distance (km) Brightness Sun altitude
Rises 20:05:52 0° 251° (WSW) 3,835 10.9 -25.2°
Reaches altitude 10° 20:08:10 10° 244° (WSW) 3,153 10.3 -25.4°
Maximum altitude 20:15:40 44° 175° (S) 2,339 9.0 -26.2°
Enters shadow 20:17:30 41° 153° (SSE) 2,598 9.1 -26.4°
